Temperature
29 31 31 32 32 32 32 32 32 32 32 31 31 31 31 29 28 28 27 26 26 25 24 22 22 21 20 20 20 20 19 19 19 19 18 18 18 18 18 18 18 18 18 18
29 30 31 31 31 31 32 32 32 31 31 31 31 31 31 30 29 28 28 27 26 25 24 23 22 21 20 20 20 20 20 20 19 19 19 18 18 18 18 18 18 18 18 18
30 30 30 30 30 30 31 31 31 31 31 31 31 31 31 30 29 28 28 27 27 26 25 23 22 22 21 21 20 20 20 20 20 19 19 18 18 18 18 18 18 18 18 18
30 29 29 30 30 30 30 31 31 31 31 31 31 31 31 31 30 29 28 27 27 26 25 24 23 22 21 21 21 21 21 20 20 20 19 18 18 19 18 18 18 18 18 18
29 28 29 29 30 30 31 30 31 31 31 31 31 31 32 31 31 30 29 28 27 26 26 24 23 23 22 22 21 21 21 21 20 20 19 19 19 19 18 18 18 18 18 18
29 29 29 30 30 30 30 30 30 30 31 30 30 30 31 32 31 31 30 29 28 27 26 25 24 23 22 22 21 21 21 21 21 20 20 20 19 19 19 18 18 18 18 18
27 28 29 29 29 29 30 30 29 29 29 29 30 30 31 32 31 31 30 29 28 27 26 25 24 23 22 22 22 21 21 21 21 20 20 20 19 19 19 19 18 18 18 18
27 27 28 29 29 29 29 30 29 29 29 30 29 30 31 31 30 29 29 28 28 27 26 25 24 23 23 22 22 21 22 22 21 21 20 20 20 19 19 19 19 18 18 18
28 28 29 29 30 30 29 30 31 30 30 30 30 30 31 31 30 30 29 28 28 27 26 25 25 24 23 23 22 22 21 21 21 21 20 20 20 19 19 19 19 18 18 18
29 28 28 28 29 29 30 30 30 30 28 29 29 30 30 30 30 30 29 28 27 26 26 25 24 24 23 22 22 21 21 21 21 21 20 20 20 19 19 19 18 18 18 18
28 28 27 28 28 29 29 29 30 30 30 29 29 30 31 30 30 29 29 28 27 26 25 25 24 23 22 22 22 21 21 20 20 20 20 20 19 19 19 19 18 18 18 18
28 28 28 28 29 29 30 30 29 29 28 29 30 30 30 30 29 29 28 27 26 25 25 24 23 23 22 21 21 21 20 20 20 20 20 20 19 19 19 19 18 18 18 18
27 27 26 27 27 28 28 29 30 30 29 29 29 30 29 29 29 28 27 26 25 24 24 23 22 22 21 21 21 20 20 20 20 19 19 19 19 19 19 19 18 18 18 18
26 26 27 28 28 28 28 28 29 29 29 29 29 30 29 29 29 27 26 25 25 24 23 22 22 21 21 20 20 20 20 19 19 19 19 19 19 19 19 18 18 18 17 17
26 26 27 28 29 29 29 28 29 29 29 29 30 30 30 29 28 27 26 25 24 24 23 22 21 21 21 20 20 20 19 19 19 19 19 19 19 18 18 18 18 17 17 17
25 26 26 27 27 28 28 28 29 29 29 30 30 30 30 29 27 26 25 25 24 24 23 22 21 21 20 20 20 20 19 19 19 19 19 18 18 18 18 17 17 17 16 16
25 25 25 26 27 27 27 28 28 29 29 29 29 29 29 28 27 26 25 25 24 23 23 22 21 21 20 20 20 19 19 19 19 18 18 18 18 18 17 17 16 16 16 16
24 24 25 26 26 25 27 29 29 29 29 29 29 29 28 27 26 25 25 24 24 23 22 22 21 21 20 20 19 19 19 19 18 18 18 18 17 17 17 17 16 16 16 15
24 24 25 26 25 26 26 27 27 27 27 28 28 27 27 26 25 25 24 24 23 23 22 21 21 21 20 20 19 19 19 18 18 18 17 17 17 17 16 16 16 15 15 15
22 23 25 25 25 25 27 27 26 27 26 27 27 26 26 25 27 26 24 23 22 22 21 21 21 20 20 20 19 19 18 18 18 17 17 17 16 16 16 16 15 15 15 14
23 23 24 25 25 26 27 25 25 26 26 26 25 25 25 25 26 24 22 22 21 21 21 21 20 20 20 19 19 18 18 17 17 17 16 16 16 16 15 15 15 14 14 14
24 24 24 25 25 25 25 25 26 25 23 24 24 24 24 23 23 22 21 21 20 20 20 20 20 19 19 19 18 18 17 17 17 16 16 16 15 15 15 15 14 14 14 13
24 24 25 25 25 23 23 24 22 22 22 22 23 22 22 22 22 21 21 20 20 19 19 19 19 19 19 18 18 18 17 17 16 16 16 15 15 15 14 14 14 13 13 13
22 21 23 23 23 22 21 21 20 20 21 21 21 21 21 21 21 21 20 19 19 19 19 19 19 19 18 18 17 17 17 17 16 16 15 15 15 14 14 14 13 13 13 12
21 21 22 22 22 22 21 20 20 20 20 20 20 20 20 20 20 20 19 19 19 18 18 18 18 18 18 17 17 17 16 16 16 15 15 14 14 14 14 13 13 13 12 12
21 22 22 23 21 22 21 20 19 20 20 20 20 19 19 19 19 19 18 18 18 18 18 18 17 17 17 17 16 16 16 16 16 15 15 14 14 14 13 13 13 12 12 12
Wind_Speed
7 10 12 11 9 6 8 9 8 5 3 6 6 4 6 8 10 10 11 11 12 11 11 11 11 11 11 11 11 11 10 10 8 6 6 6 5 5 4 5 6 6 6 5
9 12 9 7 7 7 8 10 9 6 3 5 5 5 5 8 10 10 10 11 11 11 11 11 12 12 12 12 12 11 11 11 10 7 5 5 4 5 5 5 5 7 6 6
14 8 9 10 11 11 11 10 9 6 5 6 6 7 7 7 8 9 9 10 11 11 12 13 13 13 13 13 13 12 12 11 11 9 7 5 5 5 5 5 5 6 7 7
11 7 11 13 13 12 11 7 7 7 8 6 6 6 7 7 8 9 10 10 11 12 13 13 13 13 13 13 13 12 12 11 10 10 9 8 7 6 6 5 4 5 7 7
10 11 13 14 12 11 6 6 6 8 8 7 7 8 4 6 6 7 9 10 11 12 13 13 14 13 13 13 12 12 11 11 11 10 10 9 8 6 5 5 5 5 5 6
7 8 10 10 9 9 8 8 6 7 9 10 8 8 5 4 4 4 5 8 10 11 12 12 13 12 12 12 11 11 11 11 10 11 10 9 8 7 6 6 5 5 4 5
10 11 9 9 11 11 12 11 8 9 10 9 6 8 5 1 1 3 2 4 7 10 11 12 13 13 13 12 12 11 11 11 11 10 9 9 8 8 8 7 6 6 4 4
15 14 14 12 13 12 16 16 11 8 9 8 7 8 4 1 1 1 2 2 4 8 10 11 12 12 12 13 12 12 11 10 10 10 9 8 8 7 6 7 6 5 5 4
13 12 13 12 10 12 15 15 12 9 8 8 8 6 6 4 3 2 1 3 4 6 8 10 11 11 11 12 12 12 11 10 9 9 8 7 7 7 6 4 5 4 4 4
8 10 12 11 10 7 11 13 9 11 9 10 9 10 6 7 5 2 1 2 4 5 6 7 8 9 10 10 10 10 10 9 8 8 7 6 6 6 5 4 4 3 3 3
9 10 12 13 15 16 12 14 12 11 10 10 9 6 4 4 3 2 2 2 3 5 6 6 7 8 9 9 9 9 9 8 7 7 6 5 5 5 4 4 4 3 3 2
11 9 12 14 9 9 15 15 15 12 10 10 10 4 6 4 3 2 2 3 4 5 6 7 8 9 8 8 8 8 8 7 7 6 6 5 4 4 4 4 3 3 2 2
11 9 12 12 11 11 14 15 16 14 10 11 12 6 7 5 4 3 4 4 5 6 7 8 8 8 8 8 7 7 6 6 6 6 6 5 4 4 3 3 3 2 2 2
10 10 13 14 12 17 16 16 16 15 12 13 13 8 7 6 5 5 4 5 5 6 7 8 8 8 8 7 7 7 6 6 6 6 6 5 4 3 3 3 2 2 2 2
9 12 13 9 6 12 15 17 18 18 17 14 12 12 9 7 6 5 5 5 6 6 7 7 7 7 7 7 7 6 6 6 6 7 6 5 5 4 4 4 3 3 3 2
9 10 12 11 9 11 13 15 17 18 16 15 13 11 6 5 5 6 7 7 7 7 7 7 7 7 7 7 7 7 7 7 7 7 6 6 5 5 5 5 5 5 4 4
11 10 12 12 12 11 15 15 16 16 15 14 14 10 6 7 7 7 8 8 7 7 7 8 8 7 7 7 7 7 7 7 7 7 6 6 6 6 5 5 5 5 5 5
10 11 10 10 11 14 9 9 12 13 12 11 9 6 7 7 6 6 7 7 7 7 7 7 8 8 7 7 8 8 8 8 8 7 6 6 6 6 6 6 6 6 6 6
10 11 10 10 13 11 7 7 11 12 11 10 9 7 6 6 5 6 6 6 7 7 7 7 8 9 9 9 9 9 9 9 8 7 6 6 6 6 7 7 6 6 6 6
9 10 11 11 13 13 9 9 8 9 11 8 9 9 9 9 8 6 5 6 6 7 7 7 8 9 9 9 10 10 9 8 8 7 7 6 6 7 7 7 7 6 6 7
13 11 14 13 11 8 5 8 9 11 7 6 8 9 10 9 4 4 5 5 6 7 8 9 9 9 9 10 10 9 9 8 8 8 8 7 7 7 8 7 7 7 7 7
13 12 13 12 12 8 7 9 8 2 4 4 5 6 7 5 5 5 6 6 7 8 9 10 10 9 9 10 10 10 9 9 9 9 9 8 7 7 7 8 7 7 7 8
8 6 7 7 5 4 5 3 2 2 3 3 4 4 5 6 6 6 6 7 8 8 9 9 10 10 9 9 9 10 10 10 10 10 9 8 8 7 7 7 7 7 5 5
4 1 4 4 4 4 4 2 2 3 2 2 2 3 4 5 6 6 7 8 8 8 8 8 9 10 9 9 9 10 10 11 10 10 9 8 8 7 7 5 5 5 4 4
4 5 5 5 4 5 5 4 3 3 2 2 2 2 3 5 6 7 7 7 7 8 8 8 8 9 9 9 9 10 10 11 10 10 9 8 7 8 7 6 5 4 4 3
5 5 6 5 5 4 5 4 3 3 2 2 2 2 2 3 5 6 7 7 7 7 7 8 8 9 9 9 9 9 10 10 10 9 8 7 7 7 7 7 7 11 9 10
Wind_Direction
189 205 203 198 209 212 204 206 197 178 169 217 221 209 174 180 194 194 193 195 198 199 190 188 192 195 191 191 191 193 195 190 196 202 206 202 207 216 213 211 207 217 221 215
191 207 197 186 189 203 208 209 199 170 164 226 227 221 190 188 202 204 201 203 203 196 189 188 192 193 195 194 195 198 200 198 201 204 212 216 223 225 224 223 207 221 223 223
206 180 173 184 188 199 209 213 205 188 181 208 239 223 200 193 205 206 208 209 208 201 193 189 192 193 195 196 199 202 203 202 206 206 210 212 210 226 222 219 214 221 225 227
206 170 182 191 195 202 201 208 209 201 213 206 235 238 199 199 202 208 213 213 211 204 198 194 193 193 196 197 197 202 202 205 206 208 217 219 222 229 231 231 224 220 224 231
190 183 189 197 196 206 191 172 199 210 222 230 217 253 209 179 216 218 217 215 211 205 199 195 195 194 196 197 195 197 200 204 205 211 216 219 228 234 235 235 228 231 222 227
178 183 201 201 188 191 158 163 179 217 232 232 228 246 241 198 233 237 214 214 211 204 197 193 193 190 193 194 195 195 195 201 203 206 213 220 231 237 241 237 235 230 227 227
185 188 190 190 177 182 193 194 199 210 220 228 210 239 245 272 269 264 244 210 204 199 195 192 192 190 190 191 193 194 191 197 199 204 211 216 225 232 236 238 233 235 237 233
192 191 189 192 197 191 205 210 217 220 221 212 195 231 230 191 208 242 240 208 194 192 191 192 194 193 190 188 189 190 192 197 199 204 208 214 217 226 233 231 242 235 242 241
199 192 177 190 202 204 201 216 229 236 243 239 209 212 217 198 192 164 156 173 176 182 187 191 191 188 186 187 188 190 189 193 199 204 205 212 217 226 234 233 235 243 240 239
204 188 176 179 186 211 219 206 212 228 230 233 221 220 214 185 194 194 195 166 153 162 169 178 179 176 177 182 182 182 184 190 195 197 203 205 209 212 219 227 227 239 240 236
204 194 176 182 200 192 193 203 214 221 235 237 229 211 172 184 190 205 186 144 141 147 151 156 160 162 165 168 167 171 177 181 184 190 194 200 199 200 204 213 218 220 224 220
203 208 191 192 192 218 207 207 207 212 217 239 250 199 127 157 166 178 150 125 122 130 135 141 144 145 149 153 157 161 167 170 173 177 179 181 180 180 186 194 201 201 199 205
187 202 191 189 193 202 211 211 214 222 220 227 235 207 133 154 163 158 145 129 124 126 128 129 132 137 144 148 151 153 156 158 160 160 161 159 162 165 168 174 180 183 183 186
199 209 218 211 201 190 199 204 210 215 222 224 234 226 175 179 175 164 156 142 134 130 130 130 134 138 142 145 148 149 148 150 152 150 147 144 149 150 150 150 148 148 149 147
206 211 220 232 209 199 203 204 207 217 228 234 229 230 217 196 190 174 165 155 148 141 140 141 140 138 141 143 144 144 142 142 143 141 138 137 136 134 138 134 125 115 113 117
208 213 206 212 211 211 213 211 211 218 227 234 237 234 215 198 189 180 178 173 167 159 154 151 148 144 145 145 143 141 139 139 140 138 135 133 131 127 125 121 112 107 101 96
193 200 206 207 200 209 217 213 211 216 222 228 231 230 198 203 200 194 187 183 178 168 162 160 158 153 149 143 139 139 141 140 137 134 133 133 131 125 119 116 114 114 108 99
199 205 209 205 194 217 211 205 216 219 220 226 237 221 206 209 198 194 191 188 181 171 165 160 157 150 146 141 138 137 138 137 136 136 134 132 130 126 123 118 115 110 107 103
203 203 210 209 209 211 189 193 204 210 219 223 222 209 191 177 179 188 182 182 180 169 160 154 154 149 144 142 141 139 137 136 135 135 135 134 133 129 126 121 114 109 107 103
192 213 217 213 220 217 200 177 193 211 218 204 206 200 187 186 205 183 156 163 162 154 149 147 145 144 143 143 144 141 136 135 134 133 130 128 128 128 124 120 115 112 109 106
183 198 214 214 220 220 154 157 177 209 206 176 196 197 195 205 219 137 134 144 151 148 146 145 144 143 143 145 145 140 135 134 131 127 125 122 122 124 122 118 115 115 112 107
194 194 205 213 220 207 144 174 199 186 97 148 175 187 192 183 154 140 140 141 145 145 145 144 142 140 143 148 146 139 135 131 128 125 122 119 120 121 122 118 115 115 117 116
209 210 202 211 209 96 154 163 98 104 136 150 173 178 178 174 169 158 147 143 144 144 144 144 142 140 143 149 148 141 137 134 132 128 123 121 120 116 118 121 123 126 128 127
180 211 192 184 167 153 160 162 163 161 161 165 171 175 180 181 174 161 150 147 146 144 145 146 145 145 144 146 144 139 139 140 137 132 127 126 124 120 113 114 120 123 126 126
173 180 187 195 170 162 163 159 153 154 163 147 138 148 172 174 167 158 153 150 148 144 144 148 150 148 146 144 141 140 142 142 138 135 134 133 128 121 114 100 74 96 87 87
196 200 209 196 172 188 156 149 155 154 144 126 119 112 128 155 156 155 151 148 147 144 145 148 148 146 143 143 142 143 147 147 145 145 146 144 140 135 133 125 103 55 62 66
Height
1516 1513 1512 1510 1510 1510 1512 1515 1518 1519 1520 1522 1522 1523 1525 1531 1534 1536 1539 1542 1546 1549 1553 1555 1557 1560 1562 1563 1565 1566 1568 1570 1571 1573 1575 1576 1577 1578 1579 1579 1580 1580 1581 1582
1515 1512 1511 1512 1514 1514 1515 1518 1518 1520 1522 1522 1522 1522 1522 1528 1531 1533 1536 1539 1542 1546 1550 1553 1555 1557 1559 1561 1562 1564 1566 1568 1570 1572 1573 1574 1576 1577 1577 1578 1578 1579 1579 1580
1509 1509 1513 1516 1517 1518 1517 1517 1518 1521 1523 1521 1522 1523 1522 1524 1528 1531 1534 1537 1539 1542 1546 1549 1551 1554 1556 1558 1560 1562 1564 1566 1568 1569 1571 1572 1573 1574 1575 1576 1576 1577 1577 1578
1508 1512 1515 1515 1516 1516 1520 1515 1517 1520 1524 1524 1524 1530 1519 1518 1523 1527 1530 1533 1535 1538 1542 1545 1548 1550 1552 1555 1557 1559 1562 1564 1565 1567 1569 1570 1571 1572 1573 1574 1575 1575 1575 1575
1510 1512 1513 1514 1513 1515 1515 1518 1518 1520 1522 1523 1523 1527 1518 1516 1520 1521 1524 1528 1531 1534 1538 1541 1544 1546 1549 1552 1555 1557 1559 1561 1562 1564 1565 1567 1568 1570 1571 1571 1572 1572 1573 1572
1507 1511 1511 1510 1512 1515 1518 1520 1522 1521 1520 1534 1526 1529 1525 1513 1516 1516 1519 1524 1527 1530 1534 1537 1541 1544 1546 1549 1552 1553 1555 1557 1559 1561 1563 1564 1566 1567 1568 1568 1569 1569 1570 1570
1512 1511 1510 1511 1514 1517 1517 1522 1533 1538 1536 1533 1522 1527 1522 1511 1513 1516 1518 1520 1523 1527 1530 1534 1537 1540 1543 1545 1548 1550 1552 1554 1556 1558 1560 1561 1562 1564 1564 1565 1566 1566 1567 1567
1511 1513 1508 1509 1509 1513 1514 1514 1528 1538 1536 1527 1526 1527 1515 1511 1515 1517 1518 1520 1522 1524 1527 1530 1533 1536 1539 1542 1545 1547 1549 1551 1554 1555 1557 1558 1560 1561 1562 1562 1563 1563 1564 1564
1500 1505 1503 1506 1506 1507 1513 1511 1506 1517 1522 1527 1520 1518 1513 1511 1513 1515 1517 1518 1519 1522 1524 1527 1530 1533 1537 1539 1542 1544 1546 1548 1551 1553 1554 1555 1557 1558 1559 1559 1560 1560 1561 1561
1494 1503 1504 1506 1508 1509 1505 1506 1514 1519 1533 1535 1525 1521 1515 1511 1511 1513 1515 1516 1518 1520 1523 1525 1528 1531 1534 1537 1540 1542 1544 1546 1548 1550 1552 1553 1554 1555 1556 1557 1557 1558 1558 1558
1494 1501 1505 1506 1507 1507 1510 1510 1510 1512 1515 1526 1529 1520 1503 1507 1510 1512 1514 1516 1518 1519 1522 1524 1526 1529 1532 1535 1538 1540 1542 1544 1546 1548 1549 1551 1552 1553 1554 1554 1555 1555 1555 1555
1495 1495 1502 1502 1500 1499 1501 1503 1508 1518 1523 1518 1517 1515 1503 1507 1510 1512 1514 1516 1518 1520 1522 1524 1526 1528 1531 1534 1536 1538 1541 1543 1544 1546 1548 1549 1550 1551 1551 1552 1552 1552 1552 1553
1495 1498 1509 1510 1510 1505 1502 1501 1502 1505 1511 1515 1518 1514 1505 1508 1510 1512 1514 1517 1518 1520 1522 1524 1526 1528 1530 1533 1535 1537 1539 1541 1543 1545 1546 1547 1548 1548 1549 1549 1550 1550 1550 1550
1495 1496 1498 1500 1495 1495 1502 1502 1501 1504 1512 1513 1511 1505 1504 1506 1509 1512 1515 1517 1518 1520 1522 1524 1526 1528 1530 1532 1534 1536 1538 1540 1542 1543 1544 1545 1546 1546 1547 1547 1548 1548 1549 1549
1493 1495 1493 1488 1487 1489 1494 1497 1500 1502 1500 1504 1502 1501 1500 1503 1508 1512 1515 1517 1518 1520 1521 1523 1525 1527 1529 1531 1533 1535 1537 1538 1540 1541 1542 1543 1543 1544 1545 1545 1546 1546 1547 1547
1492 1493 1493 1495 1491 1491 1494 1493 1495 1497 1496 1497 1497 1499 1497 1503 1507 1511 1514 1516 1517 1519 1521 1523 1524 1526 1528 1530 1532 1534 1535 1537 1539 1540 1541 1541 1542 1542 1543 1543 1544 1545 1546 1546
1490 1494 1496 1495 1492 1495 1500 1492 1492 1493 1492 1494 1498 1497 1499 1503 1506 1509 1512 1514 1516 1518 1520 1521 1523 1525 1527 1529 1531 1532 1534 1536 1537 1538 1539 1540 1541 1541 1542 1542 1543 1544 1544 1545
1490 1493 1492 1491 1499 1510 1490 1484 1486 1489 1490 1491 1492 1495 1499 1502 1505 1508 1511 1513 1515 1517 1519 1521 1523 1524 1527 1529 1530 1532 1533 1534 1536 1537 1538 1538 1539 1540 1541 1541 1542 1543 1544 1544
1489 1491 1490 1491 1497 1495 1490 1487 1488 1491 1492 1491 1494 1496 1500 1503 1505 1507 1509 1511 1513 1515 1517 1519 1521 1523 1525 1527 1529 1531 1532 1533 1535 1536 1536 1537 1539 1539 1540 1541 1542 1542 1543 1544
1491 1490 1488 1491 1496 1499 1487 1484 1488 1491 1494 1491 1493 1496 1499 1501 1500 1503 1507 1510 1512 1514 1515 1517 1520 1522 1524 1526 1528 1530 1531 1533 1534 1535 1536 1537 1538 1539 1540 1541 1542 1543 1544 1545
1488 1490 1487 1488 1491 1484 1480 1485 1489 1497 1491 1490 1493 1495 1497 1498 1498 1503 1506 1508 1510 1512 1514 1516 1518 1521 1523 1525 1527 1529 1531 1532 1533 1534 1535 1537 1538 1539 1540 1541 1542 1543 1545 1546
1479 1482 1486 1484 1489 1488 1483 1485 1486 1487 1489 1491 1493 1495 1497 1499 1500 1503 1505 1506 1508 1510 1512 1515 1517 1520 1522 1524 1527 1528 1530 1531 1533 1534 1535 1537 1538 1540 1541 1542 1543 1544 1545 1546
1474 1475 1474 1478 1482 1483 1484 1485 1488 1489 1491 1492 1493 1495 1497 1498 1500 1502 1504 1505 1508 1510 1511 1514 1516 1518 1521 1523 1525 1527 1529 1531 1532 1534 1536 1537 1539 1540 1542 1543 1544 1545 1546 1548
1478 1481 1478 1480 1481 1484 1486 1488 1489 1490 1491 1492 1493 1494 1496 1497 1498 1500 1502 1504 1506 1509 1510 1513 1515 1517 1520 1522 1525 1526 1528 1530 1532 1534 1536 1537 1539 1540 1542 1543 1545 1546 1547 1548
1477 1480 1478 1480 1482 1484 1486 1488 1489 1490 1491 1492 1493 1493 1494 1496 1498 1499 1501 1503 1505 1507 1509 1511 1514 1516 1519 1521 1523 1525 1527 1530 1532 1534 1536 1538 1539 1541 1542 1543 1545 1546 1547 1549
1478 1478 1477 1476 1482 1482 1486 1488 1490 1490 1491 1492 1492 1493 1494 1495 1497 1499 1500 1502 1504 1506 1508 1510 1513 1516 1518 1520 1522 1524 1526 1529 1531 1533 1535 1537 1539 1541 1542 1543 1545 1546 1547 1548